Wind_Speed
14 14 12 10 7 13 14 15 11 11 12 11 10 10 10 7 4 7 26 24 21 17 17 16 16 15 15 16 15 15 15 16 16 15 15 13 11 12 14 15 13 13 12 11 11 11 9 10 10
19 18 12 11 5 13 15 11 10 9 10 13 10 6 9 5 5 14 29 24 20 15 10 15 16 16 15 16 16 16 16 15 15 14 16 13 12 10 13 14 13 12 11 11 10 11 11 9 10
18 14 14 7 17 14 12 7 7 7 8 4 6 5 6 6 8 27 27 25 18 22 15 16 16 17 16 17 16 16 14 14 14 14 15 13 13 13 10 12 12 11 10 10 9 9 10 11 9
20 18 16 16 14 13 12 8 7 7 6 5 5 3 5 9 6 28 27 26 23 16 15 16 17 17 16 16 16 14 14 12 12 13 14 12 12 12 9 9 9 9 9 8 8 7 8 9 9
14 11 6 14 13 11 8 7 5 3 3 3 2 5 4 9 27 28 28 25 21 16 15 14 16 16 16 15 15 13 11 11 10 11 12 11 10 9 9 7 8 7 8 8 6 5 6 7 6
9 5 15 13 11 10 9 6 7 4 5 5 6 13 10 18 33 30 27 29 24 12 15 12 13 14 15 15 13 12 9 9 8 8 10 10 8 7 6 5 5 6 6 6 5 5 4 4 5
0 1 11 10 11 8 7 9 6 6 6 5 7 11 16 27 29 31 28 27 24 19 14 12 11 11 11 12 11 10 7 7 7 7 7 8 6 5 3 2 2 3 3 4 5 4 4 3 3
13 2 9 6 8 8 5 9 8 7 9 9 3 5 20 26 34 28 30 25 18 18 13 18 11 10 10 9 9 8 7 6 6 6 5 6 3 3 3 2 1 0 2 2 3 3 3 4 2
7 7 8 6 7 7 7 5 8 9 8 4 4 7 21 27 30 27 27 21 18 16 12 12 14 5 8 8 7 7 6 5 5 4 6 4 6 6 6 6 4 7 5 6 6 4 5 4 4
2 6 7 5 3 8 7 4 8 6 5 7 10 20 20 29 33 22 25 17 13 10 11 8 13 7 8 6 6 6 5 4 4 5 6 6 5 7 12 10 7 3 5 8 9 5 4 6 7
3 10 6 6 7 6 7 7 6 7 5 5 17 25 22 25 31 29 17 11 7 8 9 10 7 19 8 6 6 3 4 4 3 3 5 7 6 9 15 14 10 12 8 18 14 8 6 5 11
6 5 6 6 7 7 6 7 8 9 9 11 19 17 26 28 31 20 15 11 10 9 6 8 10 8 9 6 4 5 3 3 4 4 5 5 8 10 14 16 16 14 13 14 12 10 8 7 8
2 5 6 6 7 6 7 7 8 10 12 18 18 23 20 22 23 13 10 8 9 9 7 7 8 9 7 4 4 2 5 5 4 5 7 6 7 10 13 14 15 11 9 12 13 11 11 11 12
7 8 7 6 8 4 6 8 9 13 16 18 19 20 20 18 18 14 12 11 11 11 8 8 8 8 5 3 3 4 8 5 4 4 5 5 7 7 11 12 12 10 6 11 12 12 12 12 14
11 11 8 6 5 5 5 5 10 16 17 18 17 16 15 13 9 10 11 12 12 10 10 7 8 7 5 4 4 4 8 4 4 3 3 4 6 4 9 10 11 9 6 9 11 10 11 13 11
16 9 6 5 7 7 12 13 12 16 17 17 17 17 15 15 13 12 11 10 13 11 10 8 9 8 6 5 4 5 6 4 3 4 6 4 6 5 7 10 11 9 8 8 12 13 11 10 8
8 9 5 3 7 7 5 7 9 13 17 16 17 16 14 12 12 12 10 11 9 11 11 10 9 9 6 5 4 7 6 5 3 5 4 7 8 7 7 9 9 9 9 10 12 12 12 11 11
12 5 4 4 5 3 2 4 8 11 16 17 16 14 15 15 13 12 11 10 11 12 14 12 10 7 5 5 3 5 3 4 4 2 4 4 5 6 7 7 9 7 10 11 13 14 12 10 8
4 3 3 4 6 6 6 7 11 11 14 16 17 15 13 13 13 13 12 10 11 13 11 11 10 8 5 3 2 1 3 2 2 3 6 2 3 5 5 5 7 8 9 10 12 12 12 11 9
2 1 6 6 8 6 8 9 13 14 13 15 17 15 14 12 15 15 12 12 11 11 12 11 10 8 5 4 3 4 4 3 5 5 5 2 2 5 4 3 5 7 7 9 10 10 11 11 10
7 7 4 5 13 8 6 8 14 15 13 16 16 15 14 13 17 13 14 14 14 14 12 10 9 9 7 6 5 4 3 1 1 3 4 2 3 4 3 2 2 4 5 6 9 10 10 9 9
4 4 5 11 15 14 17 19 22 20 18 17 17 19 16 16 14 15 13 13 13 14 15 13 11 10 9 8 6 5 4 4 3 7 10 5 2 2 2 1 2 2 3 4 7 8 9 10 8
5 2 6 13 13 5 12 11 17 17 18 17 17 19 19 19 17 17 15 17 12 15 14 14 15 12 11 8 8 7 7 6 8 6 8 3 6 2 0 1 1 2 2 4 6 8 8 10 8
6 7 11 10 8 21 8 21 11 8 8 14 17 18 19 19 18 18 16 15 14 14 14 15 21 15 13 11 9 8 8 8 8 9 7 5 6 4 1 1 1 2 4 4 6 8 10 8 6
10 14 12 4 11 5 6 10 13 5 2 7 17 21 20 18 17 17 18 16 16 17 15 17 22 14 14 11 9 9 10 9 9 6 7 9 4 3 4 3 2 2 2 4 7 10 10 9 6
16 12 4 5 2 11 4 11 9 5 2 1 6 20 22 20 18 16 16 16 17 17 15 16 17 14 13 11 10 10 9 8 8 7 6 7 9 5 10 8 5 4 6 6 9 11 10 8 7
11 10 11 9 13 22 12 13 12 8 3 2 4 8 14 17 18 18 16 14 16 16 17 16 16 14 11 10 11 13 10 8 9 7 6 6 7 11 12 11 8 6 5 4 7 9 9 8 8
14 12 13 10 5 3 4 18 13 7 8 7 8 9 12 15 17 18 18 17 16 16 15 16 16 15 13 11 10 8 9 9 9 8 8 8 10 8 11 9 9 10 8 7 6 8 10 10 10
11 15 13 4 17 10 6 4 3 8 13 12 10 9 11 10 8 12 17 19 16 15 16 15 17 16 14 14 15 10 6 6 8 9 10 10 11 10 9 9 9 11 14 13 11 11 11 12 12
8 14 15 12 6 16 4 19 7 6 12 11 11 9 12 11 10 10 10 14 20 20 20 21 19 19 20 19 19 16 11 12 12 11 11 13 13 13 12 12 11 12 12 16 16 16 17 16 16
Wind_Direction
91 86 98 105 84 94 72 88 81 98 80 93 126 150 162 133 43 156 147 148 146 138 136 138 134 136 136 138 131 122 117 107 102 96 93 89 91 99 107 99 96 94 103 102 100 100 100 103 97
95 98 84 73 345 79 77 73 65 75 100 94 83 134 165 180 140 145 148 144 144 120 142 140 139 139 141 137 132 123 115 109 101 94 92 84 83 98 102 103 100 96 98 101 96 95 97 113 100
97 83 72 349 60 60 84 79 91 91 105 88 81 88 180 197 159 153 145 140 145 146 166 140 139 138 142 135 130 121 118 109 103 98 93 85 79 86 98 101 96 90 91 95 97 93 92 97 108
102 93 68 68 73 63 65 81 95 89 119 108 103 52 177 161 190 159 150 146 142 133 138 143 139 137 138 134 129 127 118 109 100 95 86 82 81 80 81 89 94 98 92 90 95 95 94 91 92
114 92 114 89 76 70 69 85 100 82 94 101 161 152 156 156 150 154 149 141 137 138 134 145 138 138 133 130 133 123 116 108 93 87 83 79 76 77 77 78 88 92 96 98 98 93 83 86 90
75 53 119 95 83 69 58 63 75 89 95 86 129 121 142 149 152 151 148 140 126 146 136 147 141 143 136 133 131 123 120 105 91 77 74 75 70 73 78 83 89 96 104 112 117 114 103 94 93
44 174 85 92 91 65 51 48 75 75 81 104 149 127 151 156 152 149 149 139 141 153 153 135 136 135 133 127 124 123 118 101 85 73 74 70 64 65 66 74 90 119 141 144 152 150 140 114 74
104 111 105 69 83 74 67 64 74 96 108 122 150 158 161 163 156 156 150 138 140 134 126 146 135 134 121 120 124 122 111 103 94 82 76 65 54 42 360 351 355 237 272 239 236 195 179 137 106
79 92 108 97 110 89 80 52 83 101 91 117 155 183 161 161 157 160 151 133 124 127 123 138 128 124 127 122 125 118 114 108 99 83 55 23 27 21 1 323 301 245 257 250 238 252 226 172 129
309 112 73 87 81 97 79 92 92 71 78 91 137 159 166 163 157 160 147 138 134 127 128 129 125 132 143 150 128 129 123 100 75 58 57 72 20 340 283 2 360 1 291 223 207 216 213 203 119
331 101 92 85 110 116 88 81 94 89 98 117 150 148 149 153 151 152 149 142 125 151 158 138 121 148 146 157 153 133 116 113 82 48 70 46 27 349 7 349 335 2 330 220 200 203 197 179 137
141 130 106 100 113 83 97 87 105 85 117 124 145 144 147 148 152 153 160 151 158 181 171 152 147 129 145 154 149 187 158 93 70 57 55 42 18 10 353 359 3 16 53 129 160 179 165 139 143
124 153 130 136 121 110 105 97 113 121 127 123 123 128 141 141 159 150 171 146 165 189 163 161 151 128 133 158 141 151 118 100 88 47 358 28 36 339 6 6 6 22 63 127 139 145 141 122 125
174 141 140 165 162 157 145 124 103 136 146 137 143 129 141 157 164 162 162 172 175 192 170 164 149 139 151 155 148 169 112 102 108 53 315 20 54 335 3 9 12 20 68 130 141 143 139 128 115
158 140 131 152 189 207 157 140 126 150 157 152 157 157 160 167 170 167 173 183 185 192 168 159 168 138 152 167 186 164 117 84 95 96 21 22 40 2 9 19 21 33 80 134 141 143 145 134 120
118 133 144 203 204 224 192 145 125 155 169 166 166 170 176 175 180 187 189 181 225 185 153 178 154 170 163 161 151 159 142 137 123 94 27 10 16 24 32 25 29 42 86 125 139 130 127 132 136
145 147 132 157 205 276 222 124 126 157 177 183 183 181 179 186 187 198 193 195 202 193 175 173 163 167 175 136 137 158 189 136 173 91 62 321 7 16 32 41 37 55 89 114 132 135 128 126 119
126 228 150 154 198 202 13 93 155 164 180 192 196 200 199 202 199 198 181 197 190 185 175 172 170 169 168 153 163 155 174 190 180 121 306 299 323 9 22 57 49 67 91 113 127 129 132 128 111
30 54 146 135 159 172 180 167 177 170 181 196 199 202 216 207 203 194 186 199 187 183 183 183 180 174 177 187 228 270 222 294 218 89 270 269 338 0 16 71 66 67 90 114 124 124 124 119 120
73 165 149 154 168 177 185 184 185 179 183 196 199 204 207 208 202 192 201 195 200 215 191 193 188 179 187 189 225 223 240 227 204 208 250 275 344 2 33 27 77 77 95 119 127 126 122 123 126
106 115 207 212 197 166 148 200 195 188 184 192 194 199 201 203 200 199 200 202 209 227 232 215 207 201 196 210 222 227 227 228 214 197 223 242 312 21 4 23 79 96 103 116 126 127 129 126 135
108 95 176 199 198 191 183 226 195 187 188 194 198 197 196 196 200 203 211 214 218 221 225 225 222 216 212 208 222 230 224 210 277 119 229 251 271 3 332 27 174 157 143 129 128 136 143 145 131
53 82 184 204 221 144 195 10 162 179 187 202 202 207 202 203 206 216 211 218 216 228 239 251 239 230 222 214 224 230 232 223 209 198 237 232 239 283 335 177 164 177 179 175 176 165 163 168 172
258 222 206 195 174 329 23 99 262 159 193 210 216 211 211 212 210 213 214 214 219 221 230 235 257 238 230 221 222 227 239 220 211 213 221 133 281 291 211 187 162 195 215 203 195 188 185 183 202
258 240 296 72 261 136 49 105 73 70 131 214 220 214 210 210 209 212 210 215 220 223 227 224 242 235 235 231 228 230 233 227 228 237 223 205 227 155 268 234 200 194 243 235 216 205 198 196 198
274 291 194 311 6 116 47 67 67 71 86 194 206 213 202 211 210 209 214 218 218 219 223 224 237 229 230 237 239 241 242 240 240 244 257 177 217 245 257 233 218 246 290 287 215 206 206 210 205
287 272 306 298 325 86 255 94 87 80 81 148 184 175 186 209 219 211 217 223 227 225 217 219 218 221 231 244 257 255 249 244 244 246 246 244 233 219 250 242 230 241 270 304 207 206 207 219 224
249 311 290 260 207 332 28 48 100 104 94 98 158 170 190 203 212 214 223 222 232 222 222 215 223 225 235 245 253 252 245 245 247 250 252 253 261 249 225 246 256 259 261 269 251 229 219 228 226
219 251 254 303 279 263 95 116 155 123 113 113 126 150 163 173 194 210 220 221 227 228 219 225 224 224 243 258 249 240 253 273 273 266 260 259 259 263 265 259 251 259 266 261 260 262 257 245 244
254 271 270 227 267 297 64 113 128 125 115 125 121 132 166 180 178 184 201 211 215 214 231 227 218 238 244 251 252 242 262 277 275 284 283 271 268 269 269 267 266 271 270 263 263 261 260 259 260
Height
3177 3177 3177 3176 3181 3180 3182 3184 3184 3184 3185 3185 3185 3185 3185 3187 3187 3191 3191 3194 3195 3198 3199 3201 3201 3201 3202 3203 3204 3205 3206 3206 3205 3205 3205 3207 3207 3206 3205 3205 3206 3205 3206 3206 3207 3207 3207 3207 3206
3179 3180 3179 3178 3180 3178 3184 3185 3186 3187 3187 3187 3187 3186 3186 3187 3189 3189 3192 3195 3196 3203 3203 3202 3203 3203 3204 3205 3206 3207 3208 3208 3208 3209 3208 3209 3209 3209 3208 3208 3208 3208 3208 3209 3209 3208 3209 3208 3208
3182 3183 3182 3182 3183 3185 3186 3188 3189 3190 3189 3189 3188 3186 3186 3187 3189 3193 3195 3195 3199 3201 3203 3203 3204 3204 3206 3206 3208 3209 3210 3210 3210 3211 3211 3211 3210 3210 3212 3211 3211 3210 3211 3210 3210 3210 3210 3210 3210
3186 3186 3188 3187 3188 3189 3188 3190 3191 3191 3191 3190 3190 3187 3187 3188 3190 3193 3195 3197 3200 3204 3204 3205 3205 3206 3207 3208 3209 3211 3211 3212 3212 3213 3212 3213 3213 3213 3215 3214 3213 3213 3212 3212 3212 3212 3213 3212 3211
3188 3186 3189 3189 3191 3192 3192 3192 3192 3191 3191 3191 3191 3188 3187 3188 3190 3194 3197 3200 3201 3204 3206 3208 3206 3208 3209 3210 3211 3212 3214 3214 3215 3216 3216 3215 3216 3216 3216 3216 3215 3214 3214 3214 3214 3214 3214 3213 3213
3189 3187 3189 3189 3193 3194 3194 3193 3192 3191 3190 3189 3187 3186 3187 3189 3191 3195 3199 3200 3202 3208 3207 3208 3210 3210 3210 3212 3214 3214 3216 3216 3217 3217 3217 3217 3218 3218 3217 3217 3217 3216 3215 3215 3215 3215 3216 3215 3215
3189 3191 3191 3193 3194 3195 3195 3194 3193 3192 3191 3190 3187 3187 3189 3192 3195 3198 3199 3201 3205 3207 3208 3212 3213 3213 3214 3214 3215 3216 3218 3218 3218 3219 3219 3218 3219 3218 3217 3217 3217 3216 3215 3216 3216 3216 3216 3217 3216
3190 3193 3194 3194 3196 3197 3196 3195 3194 3193 3192 3191 3188 3189 3189 3192 3196 3199 3201 3203 3206 3207 3209 3211 3214 3215 3214 3216 3216 3217 3219 3219 3219 3220 3220 3219 3220 3218 3218 3217 3216 3216 3216 3216 3216 3217 3216 3216 3217
3193 3195 3195 3196 3195 3198 3197 3196 3194 3193 3192 3193 3193 3189 3191 3193 3197 3199 3201 3205 3208 3209 3211 3212 3213 3215 3216 3218 3218 3219 3219 3220 3221 3221 3220 3220 3220 3218 3217 3215 3215 3214 3215 3215 3215 3215 3217 3217 3218
3193 3195 3197 3198 3196 3198 3198 3197 3196 3196 3195 3193 3193 3190 3191 3195 3199 3201 3204 3208 3210 3212 3214 3215 3215 3219 3218 3220 3220 3220 3220 3221 3221 3221 3221 3221 3222 3220 3213 3213 3214 3214 3212 3213 3212 3215 3217 3217 3217
3195 3195 3199 3199 3199 3199 3198 3198 3198 3196 3196 3195 3192 3191 3194 3197 3200 3204 3209 3213 3215 3218 3216 3216 3216 3215 3220 3221 3222 3221 3221 3222 3222 3223 3222 3222 3222 3220 3215 3214 3211 3211 3209 3208 3212 3216 3217 3217 3217
3198 3198 3199 3200 3200 3199 3199 3199 3200 3199 3199 3195 3194 3195 3197 3200 3203 3207 3213 3216 3220 3221 3216 3217 3218 3218 3221 3221 3222 3223 3223 3223 3224 3224 3224 3224 3223 3221 3219 3214 3211 3212 3210 3209 3214 3216 3217 3218 3219
3197 3199 3200 3201 3200 3200 3199 3199 3199 3200 3199 3199 3198 3199 3203 3204 3207 3211 3216 3217 3222 3222 3218 3219 3219 3219 3221 3222 3222 3223 3223 3224 3225 3226 3225 3225 3224 3223 3219 3215 3212 3213 3212 3212 3214 3217 3217 3218 3220
3197 3198 3200 3200 3199 3199 3198 3197 3198 3201 3201 3202 3203 3203 3206 3208 3211 3216 3219 3222 3224 3222 3219 3219 3218 3220 3222 3223 3223 3223 3224 3225 3226 3226 3227 3226 3226 3225 3220 3217 3215 3212 3214 3215 3216 3218 3218 3220 3221
3193 3198 3200 3200 3199 3199 3202 3202 3197 3201 3202 3203 3206 3209 3211 3214 3213 3217 3220 3222 3222 3220 3220 3221 3220 3221 3222 3223 3224 3224 3224 3225 3227 3227 3227 3227 3226 3223 3222 3219 3217 3216 3215 3216 3216 3219 3220 3221 3222
3194 3198 3198 3198 3195 3198 3200 3199 3195 3201 3204 3205 3207 3210 3212 3214 3218 3218 3220 3221 3220 3219 3220 3222 3220 3222 3223 3223 3223 3224 3225 3226 3228 3228 3227 3227 3226 3225 3223 3220 3219 3218 3217 3217 3218 3220 3222 3222 3224
3195 3194 3196 3197 3193 3194 3189 3203 3194 3201 3205 3207 3208 3211 3213 3215 3217 3218 3220 3219 3220 3219 3220 3221 3222 3223 3223 3223 3224 3225 3227 3227 3229 3228 3229 3228 3227 3225 3224 3222 3222 3219 3219 3219 3220 3221 3223 3224 3225
3191 3192 3193 3195 3196 3194 3193 3194 3198 3202 3206 3208 3210 3212 3212 3215 3217 3220 3221 3221 3223 3220 3221 3222 3223 3223 3224 3223 3224 3225 3227 3228 3228 3229 3227 3229 3228 3225 3225 3223 3223 3222 3221 3222 3222 3222 3224 3225 3227
3190 3190 3191 3195 3195 3197 3197 3198 3200 3202 3205 3208 3210 3213 3214 3215 3218 3221 3222 3222 3222 3222 3222 3223 3224 3224 3224 3224 3224 3225 3227 3227 3228 3228 3228 3228 3227 3225 3225 3225 3225 3224 3224 3224 3224 3225 3226 3227 3229
3188 3190 3192 3195 3194 3196 3199 3200 3200 3200 3203 3206 3209 3212 3214 3216 3218 3220 3222 3224 3225 3223 3222 3223 3223 3223 3223 3223 3225 3226 3227 3228 3227 3228 3227 3227 3227 3226 3225 3226 3226 3226 3226 3226 3226 3227 3228 3229 3229
3187 3192 3192 3192 3191 3197 3200 3203 3202 3200 3201 3204 3207 3211 3214 3215 3217 3219 3222 3224 3225 3225 3223 3223 3223 3223 3224 3224 3225 3226 3226 3227 3227 3226 3227 3227 3227 3226 3226 3226 3227 3228 3228 3228 3228 3228 3229 3230 3231
3193 3189 3189 3186 3185 3189 3186 3200 3195 3194 3197 3200 3205 3208 3212 3215 3217 3219 3221 3223 3224 3225 3225 3223 3223 3224 3224 3224 3225 3225 3225 3227 3229 3228 3230 3228 3227 3226 3226 3226 3226 3227 3228 3228 3229 3229 3229 3230 3230
3188 3187 3185 3181 3181 3185 3188 3178 3185 3194 3193 3198 3202 3206 3209 3213 3216 3218 3218 3221 3225 3225 3225 3224 3223 3223 3224 3224 3224 3225 3225 3226 3227 3228 3228 3228 3227 3226 3226 3226 3226 3227 3228 3229 3229 3229 3229 3230 3231
3187 3185 3182 3182 3180 3195 3182 3185 3190 3194 3192 3194 3200 3204 3207 3210 3213 3217 3220 3222 3223 3225 3226 3226 3223 3223 3223 3224 3224 3225 3225 3225 3226 3226 3228 3228 3228 3227 3227 3227 3227 3227 3228 3228 3228 3229 3229 3230 3231
3185 3184 3184 3186 3171 3174 3175 3176 3186 3192 3191 3192 3194 3200 3204 3208 3211 3214 3217 3220 3222 3224 3225 3225 3222 3222 3223 3224 3224 3224 3224 3225 3225 3226 3226 3227 3227 3230 3228 3227 3226 3227 3228 3228 3228 3228 3229 3229 3231
3180 3180 3187 3169 3163 3169 3176 3177 3187 3189 3190 3189 3193 3193 3199 3205 3209 3213 3215 3218 3220 3221 3222 3222 3221 3221 3222 3223 3223 3223 3224 3224 3224 3225 3225 3227 3226 3227 3226 3226 3226 3226 3227 3226 3227 3228 3229 3229 3230
3181 3179 3176 3172 3170 3175 3185 3184 3185 3188 3190 3190 3193 3195 3193 3203 3206 3210 3214 3216 3217 3218 3219 3220 3220 3220 3222 3222 3223 3223 3223 3223 3223 3223 3224 3225 3225 3226 3226 3225 3225 3225 3226 3225 3225 3226 3228 3228 3229
3185 3182 3176 3174 3183 3168 3181 3180 3187 3191 3190 3191 3193 3194 3198 3202 3206 3209 3212 3215 3215 3216 3218 3218 3220 3220 3221 3222 3222 3222 3222 3222 3222 3223 3223 3223 3223 3224 3225 3224 3224 3225 3226 3226 3225 3225 3226 3227 3227
3185 3183 3180 3178 3179 3169 3178 3190 3194 3193 3190 3192 3194 3196 3198 3199 3203 3206 3209 3211 3214 3216 3218 3219 3218 3220 3220 3221 3221 3221 3221 3221 3221 3221 3221 3221 3222 3222 3222 3222 3222 3222 3223 3224 3225 3225 3224 3225 3225
3178 3177 3174 3173 3174 3170 3171 3188 3194 3196 3192 3194 3195 3197 3197 3199 3202 3205 3207 3209 3210 3213 3215 3216 3218 3217 3217 3217 3219 3219 3219 3220 3219 3220 3219 3220 3220 3220 3220 3220 3220 3220 3220 3219 3220 3221 3221 3222 3223